Regional Weather Roundup
Issued by NWS

Home | Current Version | Previous Version | Graphics & Text | Print | Product List | Glossary On
Versions: 1 2 3 4 5 6 7 8 9 10 11 12 13 14 15 16 17 18 19 20 21 22 23 24 25 26 27 28 29 30 31 32 33 34 35 36 37 38 39 40 41 42 43 44 45 46 47 48 49 50
000
ASUS43 KLMK 211802
RWRKY
KENTUCKY REGIONAL WEATHER ROUNDUP
NATIONAL WEATHER SERVICE LOUISVILLE KY
200 PM EDT THU AUG 21 2014

NOTE "FAIR" INDICATES FEW OR NO CLOUDS BELOW 12,000 FEET
WITH NO SIGNIFICANT WEATHER AND/OR OBSTRUCTIONS TO VISIBILITY.

KYZ001>023-026-027-061>063-070>075-211900-
WESTERN AND SOUTH CENTRAL KENTUCKY

CITY           SKY/WX    TMP DP  RH WIND       PRES   REMARKS
PADUCAH        SUNNY     92  71  50 SW10      30.06F HX  98
HENDERSON      SUNNY     91  75  59 SW8       30.05F HX 102
OWENSBORO      PTSUNNY   88  75  65 W10       30.08F HX  97
HOPKINSVILLE   NOT AVBL
BOWLING GREEN  PTSUNNY   89  72  56 W10       30.11F HX  96
GLASGOW        PTSUNNY   88  72  58 W8        30.12F HX  95
$$

KYZ024-025-028>034-038-045-046-053-211900-
NORTH CENTRAL KENTUCKY

CITY           SKY/WX    TMP DP  RH WIND       PRES   REMARKS
LOUISVILLE/SDF CLOUDY    83  74  74 W12       30.07S
LOUISVILLE/LOU PTSUNNY   84  73  69 W9        30.08S HX  90
FORT KNOX      PTSUNNY   87  75  66 SW12      30.08S HX  96
$$

KYZ035>037-039>044-047>052-055>060-089>105-211900-
NORTHEAST KENTUCKY

CITY           SKY/WX    TMP DP  RH WIND       PRES   REMARKS
LEXINGTON      LGT RAIN  83  73  72 W8        30.11S
COVINGTON      CLOUDY    76  73  91 SE7       30.09F
FRANKFORT      CLOUDY    80  73  79 SW7       30.09S
$$

KYZ054-064>069-076>088-106>120-211900-
SOUTHEAST KENTUCKY

CITY           SKY/WX    TMP DP  RH WIND       PRES   REMARKS
JACKSON        MOSUNNY   85  73  67 VRB3      30.14F HX  91
LONDON         PTSUNNY   86  71  60 W13       30.16F HX  91
SOMERSET       NOT AVBL
MIDDLESBORO    MOSUNNY   81  72  74 CALM      30.18S
MONTICELLO     PTCLDY    87  75  67 SW8       30.16F HX  96
$$




USA.gov is the U.S. government's official web portal to all federal, state and local government web resources and services.